Location: LewisvilleTX
(33.0462°N, 96.9942°W)
Time: 17:10:29
(UTC+00:00)

Hubble Space Telescope - Pass Details

Date: 16 September 2019
Orbit: 536 x 540 km, 28.5° (Epoch: 22 September)

Event Time Altitude Azimuth Distance (km) Brightness Sun altitude
Exits shadow 11:36:47 10° 255° (WSW) 1,761 2.7 -8.2°
Maximum altitude 11:40:39 43° 183° (S) 752 1.4 -7.4°
Drops below altitude 10° 11:44:34 10° 111° (ESE) 1,782 4.5 -6.6°
Sets 11:46:54 0° 105° (ESE) 2,673 5.8 -6.1°
